| time (UTC) | temp F | wind direction | speed MPH | gust MPH | rain 1hr in | rain 24hr in | rain mn in | humidity % | barometer mb |
| 20260507070010 | 70 | 265 | 3.0 | 5.0 | 0.00 | 0.00 | 0.00 | 30 | 1019.0 |
| 20260507063004 | 72 | 258 | 5.0 | 9.0 | 0.00 | 0.00 | 0.00 | 29 | 1019.1 |
| 20260507060005 | 73 | 256 | 4.0 | 7.0 | 0.00 | 0.00 | 0.00 | 29 | 1019.0 |
| 20260507033004 | 74 | 225 | 1.0 | 3.0 | 0.00 | 0.00 | 0.00 | 25 | 1018.1 |
| 20260507023005 | 79 | 108 | 1.0 | 4.0 | 0.00 | 0.00 | 0.00 | 21 | 1017.5 |
| 20260507020004 | 82 | 72 | 3.0 | 6.0 | 0.00 | 0.00 | 0.00 | 20 | 1017.4 |
| 20260507000005 | 85 | 39 | 5.0 | 8.0 | 0.00 | 0.00 | 0.00 | 20 | 1017.1 |
| 20260506230005 | 85 | 8 | 1.0 | 4.0 | 0.00 | 0.00 | 0.00 | 20 | 1017.5 |
| 20260506220004 | 84 | 27 | 4.0 | 12.0 | 0.00 | 0.00 | 0.00 | 21 | 1018.1 |
| 20260506200004 | 79 | 82 | 3.0 | 13.0 | 0.00 | 0.00 | 0.00 | 24 | 1019.3 |
| 20260506190005 | 79 | 242 | 1.0 | 4.0 | 0.00 | 0.00 | 0.00 | 24 | 1019.6 |
| 20260506180006 | 75 | 339 | 2.0 | 6.0 | 0.00 | 0.00 | 0.00 | 27 | 1020.0 |
| 20260506173004 | 74 | 339 | 3.0 | 8.0 | 0.00 | 0.00 | 0.00 | 29 | 1020.0 |
| 20260506170004 | 72 | 309 | 2.0 | 6.0 | 0.00 | 0.00 | 0.00 | 31 | 1019.8 |
| 20260506160004 | 67 | 285 | 1.0 | 5.0 | 0.00 | 0.00 | 0.00 | 36 | 1019.7 |
| 20260506143005 | 60 | 276 | 3.0 | 6.0 | 0.00 | 0.00 | 0.00 | 45 | 1019.4 |
| 20260506130005 | 54 | 299 | 1.0 | 3.0 | 0.00 | 0.00 | 0.00 | 52 | 1018.4 |
| 20260506123005 | 54 | 279 | 3.0 | 7.0 | 0.00 | 0.00 | 0.00 | 53 | 1018.0 |
| 20260506120005 | 53 | 280 | 2.0 | 4.0 | 0.00 | 0.00 | 0.00 | 53 | 1017.9 |
| 20260506110005 | 53 | 255 | 2.0 | 4.0 | 0.00 | 0.00 | 0.00 | 53 | 1017.6 |
| 20260506103004 | 54 | 268 | 2.0 | 5.0 | 0.00 | 0.00 | 0.00 | 52 | 1017.4 |
| 20260506083004 | 56 | 297 | 0.0 | 2.0 | 0.00 | 0.00 | 0.00 | 50 | 1017.4 |
| 20260506073004 | 58 | 307 | 2.0 | 5.0 | 0.00 | 0.00 | 0.00 | 49 | 1017.3 |